Location: Peach Mountain Observatory
(42.3967°N, 83.9367°W)
Time: 00:43:25
(UTC-05:00)

Altair - Visible Passes

Search period start: 24 January 2020 00:00
Search period end: 03 February 2020 00:00
Orbit: 1502 x 1682 km, 47.2° (Epoch: 23 January)

Date Brightness Start Highest point End Pass type
(mag) Time Alt. Az. Time Alt. Az. Time Alt. Az.
24 Jan 9.9 07:06:17 10° S 07:13:24 23° SE 07:20:36 10° E visible
25 Jan 9.9 06:41:44 10° SSE 06:48:21 20° SE 06:55:03 10° E visible
26 Jan 9.9 06:17:17 10° SSE 06:23:19 18° SE 06:29:25 10° E visible
27 Jan 9.9 05:52:57 10° SSE 05:58:18 16° ESE 06:03:41 10° E visible
28 Jan 9.9 05:28:49 10° SSE 05:33:16 14° ESE 05:37:47 10° E visible
29 Jan 10.0 05:05:00 10° SE 05:08:16 12° ESE 05:11:34 10° E visible
29 Jan 8.7 07:01:49 10° SSW 07:11:07 48° SE 07:20:39 10° ENE visible
30 Jan 10.1 04:42:26 10° SE 04:43:16 10° ESE 04:44:05 10° ESE visible
30 Jan 8.7 06:36:52 10° SSW 06:46:00 44° SE 06:55:22 10° ENE visible
31 Jan 8.8 06:11:57 10° SSW 06:20:54 41° SE 06:30:04 10° ENE visible
01 Feb 8.8 05:47:04 10° SSW 05:55:47 38° SE 06:04:45 10° ENE visible
02 Feb 8.9 05:22:13 10° SSW 05:30:42 35° SE 05:39:25 10° ENE visible
